| time (UTC) | temp F | wind direction | speed MPH | gust MPH | rain 1hr in | rain 24hr in | rain mn in | humidity % | barometer mb |
| 20260506000317 | 59 | 163 | 3.0 | 16.0 | 0.00 | 0.00 | 0.00 | 74 | 1019.3 |
| 20260505234817 | 59 | 188 | 1.0 | 8.0 | 0.00 | 0.00 | 0.00 | 73 | 1019.4 |
| 20260505233317 | 59 | 192 | 2.0 | 8.0 | 0.00 | 0.00 | 0.00 | 72 | 1019.1 |
| 20260505231817 | 60 | 129 | 4.0 | 21.0 | 0.00 | 0.00 | 0.00 | 71 | 1019.3 |
| 20260505230318 | 60 | 224 | 1.0 | 8.0 | 0.00 | 0.00 | 0.00 | 70 | 1019.1 |
| 20260505224817 | 60 | 116 | 4.0 | 16.0 | 0.00 | 0.00 | 0.00 | 69 | 1019.1 |
| 20260505223317 | 61 | 105 | 2.0 | 12.0 | 0.00 | 0.00 | 0.00 | 68 | 1019.2 |
| 20260505221817 | 61 | 201 | 2.0 | 12.0 | 0.00 | 0.00 | 0.00 | 68 | 1019.0 |
| 20260505220318 | 62 | 214 | 2.0 | 12.0 | 0.00 | 0.00 | 0.00 | 66 | 1019.2 |
| 20260505214818 | 62 | 202 | 1.0 | 8.0 | 0.00 | 0.00 | 0.00 | 65 | 1019.0 |
| 20260505213318 | 62 | 158 | 1.0 | 4.0 | 0.00 | 0.00 | 0.00 | 63 | 1018.9 |
| 20260505211817 | 63 | 139 | 2.0 | 12.0 | 0.00 | 0.00 | 0.00 | 62 | 1019.0 |
| 20260505210319 | 63 | 139 | 4.0 | 16.0 | 0.00 | 0.00 | 0.00 | 61 | 1019.0 |
| 20260505204817 | 64 | 207 | 4.0 | 16.0 | 0.00 | 0.00 | 0.00 | 60 | 1018.9 |
| 20260505203317 | 64 | 250 | 3.0 | 12.0 | 0.00 | 0.00 | 0.00 | 60 | 1018.8 |
| 20260505201817 | 64 | 227 | 2.0 | 8.0 | 0.00 | 0.00 | 0.00 | 60 | 1018.8 |
| 20260505200317 | 65 | 221 | 2.0 | 12.0 | 0.00 | 0.00 | 0.00 | 60 | 1018.9 |
| 20260505194817 | 65 | 111 | 2.0 | 12.0 | 0.00 | 0.00 | 0.00 | 59 | 1018.7 |
| 20260505193318 | 66 | 101 | 2.0 | 12.0 | 0.00 | 0.00 | 0.00 | 59 | 1019.2 |
| 20260505190317 | 66 | 213 | 3.0 | 16.0 | 0.00 | 0.00 | 0.00 | 58 | 1018.9 |
| 20260505184817 | 66 | 127 | 1.0 | 16.0 | 0.00 | 0.00 | 0.00 | 57 | 1019.1 |
| 20260505183317 | 67 | 233 | 1.0 | 8.0 | 0.00 | 0.00 | 0.00 | 56 | 1018.9 |
| 20260505181817 | 67 | 181 | 4.0 | 25.0 | 0.00 | 0.00 | 0.00 | 55 | 1019.1 |
| 20260505180317 | 67 | 152 | 2.0 | 12.0 | 0.00 | 0.00 | 0.00 | 53 | 1019.2 |
| 20260505174816 | 68 | 264 | 7.0 | 37.0 | 0.00 | 0.00 | 0.00 | 52 | 1019.2 |
| 20260505173318 | 69 | 192 | 4.0 | 16.0 | 0.00 | 0.00 | 0.00 | 51 | 1019.1 |
| 20260505171817 | 69 | 110 | 4.0 | 25.0 | 0.00 | 0.00 | 0.00 | 49 | 1018.7 |
| 20260505170317 | 70 | 240 | 3.0 | 16.0 | 0.00 | 0.00 | 0.00 | 47 | 1019.1 |
| 20260505164817 | 71 | 138 | 5.0 | 41.0 | 0.00 | 0.00 | 0.00 | 44 | 1019.2 |
| 20260505163317 | 71 | 159 | 5.0 | 33.0 | 0.00 | 0.00 | 0.00 | 43 | 1019.3 |
| 20260505161817 | 72 | 188 | 2.0 | 16.0 | 0.00 | 0.00 | 0.00 | 45 | 1019.6 |
| 20260505160317 | 73 | 211 | 4.0 | 21.0 | 0.00 | 0.00 | 0.00 | 43 | 1019.6 |
| 20260505153317 | 75 | 170 | 5.0 | 33.0 | 0.00 | 0.00 | 0.00 | 42 | 1019.7 |
| 20260505151817 | 76 | 186 | 11.0 | 57.0 | 0.00 | 0.00 | 0.00 | 41 | 1019.8 |
| 20260505150317 | 78 | 232 | 3.0 | 21.0 | 0.00 | 0.00 | 0.00 | 41 | 1019.3 |
| 20260505140318 | 80 | 143 | 6.0 | 29.0 | 0.00 | 0.00 | 0.00 | 37 | 1019.3 |
| 20260505124817 | 81 | 155 | 4.0 | 21.0 | 0.00 | 0.00 | 0.00 | 35 | 1019.6 |
| 20260505123317 | 81 | 150 | 2.0 | 12.0 | 0.00 | 0.00 | 0.00 | 38 | 1020.0 |
| 20260505121817 | 79 | 103 | 3.0 | 21.0 | 0.00 | 0.00 | 0.00 | 41 | 1020.2 |
| 20260505120317 | 79 | 266 | 2.0 | 12.0 | 0.00 | 0.00 | 0.00 | 42 | 1020.3 |
| 20260505114817 | 77 | 103 | 4.0 | 29.0 | 0.00 | 0.00 | 0.00 | 43 | 1020.7 |
| 20260505113316 | 76 | 213 | 5.0 | 37.0 | 0.00 | 0.00 | 0.00 | 42 | 1020.8 |
| 20260505111816 | 75 | 103 | 4.0 | 25.0 | 0.00 | 0.00 | 0.00 | 42 | 1020.9 |
| 20260505110316 | 75 | 201 | 4.0 | 21.0 | 0.00 | 0.00 | 0.00 | 42 | 1020.9 |
| 20260505101816 | 77 | 196 | 6.0 | 29.0 | 0.00 | 0.00 | 0.00 | 38 | 1021.2 |
| 20260505100316 | 76 | 111 | 4.0 | 16.0 | 0.00 | 0.00 | 0.00 | 44 | 1021.3 |
| 20260505094816 | 76 | 82 | 4.0 | 21.0 | 0.00 | 0.00 | 0.00 | 44 | 1021.4 |
| 20260505093317 | 74 | 114 | 5.0 | 29.0 | 0.00 | 0.00 | 0.00 | 46 | 1021.5 |
| 20260505091816 | 72 | 104 | 0.0 | 4.0 | 0.00 | 0.00 | 0.00 | 48 | 1021.9 |
| 20260505090317 | 72 | 174 | 2.0 | 8.0 | 0.00 | 0.00 | 0.00 | 48 | 1021.9 |
| 20260505084816 | 71 | 154 | 1.0 | 8.0 | 0.00 | 0.00 | 0.00 | 49 | 1021.8 |
| 20260505083317 | 71 | 221 | 5.0 | 33.0 | 0.00 | 0.00 | 0.00 | 47 | 1022.2 |
| 20260505081816 | 71 | 133 | 2.0 | 8.0 | 0.00 | 0.00 | 0.00 | 48 | 1022.0 |
| 20260505080317 | 71 | 276 | 1.0 | 8.0 | 0.00 | 0.00 | 0.00 | 49 | 1022.0 |
| 20260505074817 | 68 | 346 | 3.0 | 16.0 | 0.00 | 0.00 | 0.00 | 53 | 1022.0 |
| 20260505073316 | 67 | 212 | 4.0 | 21.0 | 0.00 | 0.00 | 0.00 | 54 | 1022.4 |
| 20260505071817 | 65 | 206 | 4.0 | 21.0 | 0.00 | 0.00 | 0.00 | 57 | 1022.6 |
| 20260505070316 | 66 | 259 | 1.0 | 8.0 | 0.00 | 0.00 | 0.00 | 55 | 1022.5 |
| 20260505064817 | 66 | 284 | 1.0 | 4.0 | 0.00 | 0.00 | 0.00 | 56 | 1022.4 |
| 20260505063316 | 63 | 260 | 1.0 | 4.0 | 0.00 | 0.00 | 0.00 | 60 | 1022.5 |
| 20260505061817 | 61 | 229 | 0.0 | 4.0 | 0.00 | 0.00 | 0.00 | 63 | 1022.6 |
| 20260505060317 | 62 | 245 | 0.0 | 4.0 | 0.00 | 0.00 | 0.00 | 61 | 1022.4 |
| 20260505054816 | 60 | 173 | 2.0 | 8.0 | 0.00 | 0.00 | 0.00 | 63 | 1022.4 |
| 20260505053317 | 56 | 275 | 0.0 | 0.0 | 0.00 | 0.00 | 0.00 | 71 | 1022.7 |
| 20260505051816 | 55 | 282 | 0.0 | 0.0 | 0.00 | 0.00 | 0.00 | 70 | 1022.5 |
| 20260505050316 | 53 | 250 | 0.0 | 0.0 | 0.00 | 0.00 | 0.00 | 71 | 1022.3 |
| 20260505040316 | 49 | 276 | 0.0 | 0.0 | 0.00 | 0.00 | 0.00 | 75 | 1022.5 |
| 20260505034816 | 49 | 261 | 0.0 | 0.0 | 0.00 | 0.00 | 0.00 | 74 | 1022.5 |
| 20260505033317 | 49 | 274 | 0.0 | 0.0 | 0.00 | 0.00 | 0.00 | 72 | 1022.4 |
| 20260505030317 | 53 | 272 | 0.0 | 0.0 | 0.00 | 0.00 | 0.00 | 64 | 1022.4 |
| 20260505024816 | 53 | 220 | 0.0 | 0.0 | 0.00 | 0.00 | 0.00 | 63 | 1022.6 |
| 20260505023317 | 49 | 248 | 0.0 | 0.0 | 0.00 | 0.00 | 0.00 | 69 | 1022.6 |
| 20260505021816 | 51 | 272 | 0.0 | 0.0 | 0.00 | 0.00 | 0.00 | 69 | 1022.7 |
| 20260505020316 | 53 | 239 | 0.0 | 4.0 | 0.00 | 0.00 | 0.00 | 62 | 1022.7 |
| 20260505014817 | 51 | 262 | 0.0 | 0.0 | 0.00 | 0.00 | 0.00 | 67 | 1022.9 |
| 20260505013317 | 49 | 274 | 0.0 | 0.0 | 0.00 | 0.00 | 0.00 | 73 | 1023.0 |
| 20260505011817 | 51 | 278 | 0.0 | 0.0 | 0.00 | 0.00 | 0.00 | 68 | 1022.9 |
| 20260505010316 | 55 | 319 | 0.0 | 0.0 | 0.00 | 0.00 | 0.00 | 62 | 1023.0 |
| 20260505004816 | 58 | 263 | 0.0 | 0.0 | 0.00 | 0.00 | 0.00 | 52 | 1023.0 |
| 20260505003317 | 59 | 152 | 1.0 | 4.0 | 0.00 | 0.00 | 0.00 | 51 | 1023.1 |
| 20260505001816 | 60 | 171 | 1.0 | 8.0 | 0.00 | 0.00 | 0.00 | 49 | 1023.2 |